SCP
-0 -0 0 0 0 0 0 0 0 -0 -0 -0 -0 -0 -0 -0 -0 -0 -0 -0 -0 -0 -0 -0 -0 -0 -0 -0 -0 -0 -0 -0 -0 -0 -0 -0 -0 -0 -0 -0 -0 0 0
0 -0 0 0 0 0 0 -0 -0 -0 -0 -0 -0 -0 -0 -0 -0 -0 -0 -0 -0 -0 -0 -0 -0 -0 -0 -0 -0 -0 -0 -0 -0 -0 -0 -0 -0 -0 0 0 0 0 0
-0 -0 0 0 -0 -0 -0 -0 -0 -0 -0 -0 -0 -0 -0 -0 -0 -0 -0 -0 -0 -0 -0 -0 -0 -0 -0 -0 -0 -0 -0 -0 -0 -0 -0 0 0 0 0 0 0 0 0
-0 -0 0 -0 -0 -0 -0 -0 -0 -0 -0 -0 -0 -1 -0 -0 -0 -0 -0 -0 -0 -0 -0 -0 -0 -0 -0 -0 -0 -0 -0 -0 -0 -0 0 0 0 0 0 0 0 0 0
-0 0 0 -0 -0 -0 -0 -0 -0 -0 -0 -0 -0 -1 -0 -0 -0 -0 -0 -0 -0 -0 -0 -0 -0 -0 -0 -0 -0 -0 -0 -0 0 0 -0 0 0 0 -0 0 0 -0 0
-0 0 -0 -0 -0 -0 -0 -0 -0 -0 -0 -0 -0 0 -0 -0 -0 -0 -0 -0 -0 -0 -0 -0 -0 -0 -0 -0 -0 -0 0 -0 0 -0 -0 -0 -0 0 0 -0 0 0 -0
-0 0 0 -0 -0 -0 -0 -0 -0 -0 -0 -0 -0 0 0 -0 -0 -0 -0 -0 -0 -0 -0 -0 -0 -0 0 -0 -0 -0 -0 -0 0 -0 -0 -0 -0 -0 0 0 0 0 -0
-0 0 0 -0 -0 -0 -0 -0 -0 -0 -0 -0 -0 -0 0 0 0 -0 -0 -0 -0 -0 -0 0 0 0 0 0 0 -0 0 0 0 -0 -0 -0 -0 -0 0 0 -0 -0 -0
-0 0 0 0 -0 -0 -0 -0 -0 -0 -0 -0 -0 -0 -0 -0 0 0 0 0 0 0 0 -0 -0 -0 -0 0 -0 -0 0 0 0 0 0 0 0 0 -0 -0 -0 -0 -0
-0 -0 0 0 -0 -0 -0 -0 -0 -0 -0 -0 -0 -0 -0 -0 0 -0 0 0 0 0 -0 -0 -0 -0 0 0 -0 0 -0 0 0 0 0 0 -0 0 -0 -0 -0 -0 -0
0 0 0 -0 -0 -0 -0 -0 -0 -0 -0 -0 -0 -0 -0 0 -0 0 0 0 0 0 -0 -0 -0 -0 -0 -0 -0 0 0 0 0 0 0 -0 0 0 -0 0 -0 -0 -0
-0 -0 -0 -0 -0 -0 -0 -0 -0 -0 -0 -0 0 -0 0 0 -0 -0 0 0 0 0 0 0 0 0 -0 -0 -0 -0 -0 0 0 0 0 0 0 0 0 0 0 0 0
0 0 -0 -0 -0 -0 -0 0 0 -0 0 -0 -0 -0 -0 -0 -0 0 -0 -0 0 0 -0 -0 -0 -0 -0 -0 -0 -0 -0 -0 -0 0 0 0 0 0 0 0 0 -0 -0
-0 -0 -0 -0 -0 -0 0 0 0 0 0 0 -0 -0 -0 0 0 -0 -0 0 0 -0 -0 -0 -0 -0 -0 -0 -0 -0 -0 -0 -0 -0 0 0 0 0 0 0 -0 -0 -0
-0 -0 -0 -0 -0 -0 0 0 0 0 0 0 0 0 0 -0 -0 -0 -0 0 -0 -0 -0 -0 0 -0 -0 -0 -0 -0 -0 0 0 0 0 0 0 -0 -0 -0 0 -0 -0
-0 -0 -0 -0 -0 -0 -0 0 -0 0 0 0 0 0 0 -0 -0 -0 -0 -0 -0 -0 -0 -0 -0 -0 0 -0 -0 -0 -0 0 -0 -0 -0 -0 0 -0 -0 -0 -0 -0 0
-0 -0 -0 -0 -0 -0 -0 0 -0 0 0 -0 0 0 0 0 0 -0 0 0 -0 -0 -0 -0 -0 -0 0 -0 -0 -0 -0 0 0 -0 -0 -0 0 0 -0 -0 -0 -0 -0
-0 -0 -0 -0 -0 -0 -0 0 0 0 -0 -0 0 0 0 -0 0 -0 -0 -0 -0 -0 -0 -0 -0 -0 -0 -0 -0 -0 -0 -0 0 -0 -0 -0 0 0 -0 -0 -0 -0 -0
-0 -0 -0 -0 -0 -0 0 0 -0 0 0 0 0 0 0 0 0 -0 -0 -0 0 0 0 -0 -0 -0 -0 -0 -0 -0 -0 -0 -0 -0 -0 0 0 0 0 -0 -0 -0 -0
-0 -0 -0 -0 -0 -0 0 0 0 -0 -0 0 0 -0 0 0 -0 0 -0 -0 -0 0 0 0 -0 -0 -0 -0 -0 -0 -0 -0 -0 0 0 0 0 -0 -0 -0 -0 -0 -0
-0 0 -0 -0 -0 -0 0 0 0 0 0 -0 -0 -0 -0 0 -0 0 -0 -0 -0 0 0 0 0 -0 0 0 0 0 0 0 -0 -0 0 0 0 0 -0 -0 0 0 -0
-0 -0 -0 -0 -0 -0 -0 0 0 0 -0 -0 -0 -0 -0 0 0 0 0 0 0 0 0 0 0 0 0 0 0 0 0 0 -0 -0 -0 0 -0 0 -0 -0 -0 -0 -0
-0 -0 -0 -0 -0 -0 -0 0 0 0 0 -0 -0 -0 -0 -0 0 0 -0 0 0 0 0 0 0 0 0 -0 0 0 0 -0 0 0 -0 -0 0 0 0 0 -0 -0 -0
-0 -0 0 -0 -0 -0 -0 -0 -0 0 0 0 0 0 -0 0 0 0 0 0 -0 -0 0 0 0 0 0 0 0 0 0 0 0 0 0 -0 -0 0 0 0 0 -0 -0
0 0 0 0 -0 -0 -0 -0 -0 0 0 0 0 0 0 0 -0 0 0 0 0 0 0 0 0 0 0 0 0 0 0 0 0 0 0 0 0 -0 -0 0 -0 -0 -0
0 0 0 0 0 -0 -0 -0 -0 -0 -0 0 0 0 0 0 0 0 0 0 0 0 0 0 0 0 0 0 0 0 0 0 0 0 0 0 0 -0 -0 -0 0 0 0
Wind_Speed_500mb
40 47 55 53 50 47 50 56 55 57 60 59 58 59 62 52 44 41 42 39 38 36 33 32 32 32 31 28 27 27 27 26 28 29 33 29 26 25 21 21 20 23 25
50 50 56 53 51 47 47 50 52 54 57 57 55 51 53 47 41 40 39 36 35 33 32 31 29 27 25 25 25 24 24 23 23 24 23 24 22 19 17 20 18 20 22
48 49 54 49 48 46 46 49 51 51 49 53 52 46 49 48 42 38 35 33 32 32 29 26 24 22 19 18 17 18 18 18 19 20 16 15 14 11 11 12 12 15 19
50 50 49 47 44 43 44 45 46 45 48 50 48 40 43 43 41 35 31 29 28 27 24 19 19 18 16 15 11 11 12 14 16 17 17 16 7 2 7 7 5 8 14
51 47 48 44 41 41 45 43 41 40 45 45 44 37 37 40 41 34 30 28 26 24 20 16 14 14 13 11 9 6 8 13 14 23 21 15 10 13 5 4 2 5 8
51 48 47 45 41 38 39 41 40 40 41 41 39 36 37 38 36 32 31 29 26 22 19 16 13 11 9 7 5 4 6 13 18 20 16 17 24 22 23 9 10 7 7
49 45 45 44 43 41 39 38 38 38 38 37 36 34 36 37 34 32 30 28 24 19 16 14 10 8 6 6 7 8 6 6 11 16 19 22 30 33 34 25 13 10 10
47 47 45 43 42 41 39 41 39 37 37 36 41 43 33 36 29 30 27 25 22 19 14 10 7 6 4 4 7 10 9 11 12 18 16 22 18 41 38 27 23 15 12
41 42 44 45 43 40 37 40 40 36 33 30 30 39 42 51 37 24 25 25 22 18 14 10 6 5 5 5 9 13 13 11 11 13 11 12 8 18 35 32 29 23 22
38 38 39 41 41 39 38 36 36 35 33 29 27 32 41 36 44 29 24 24 22 19 15 10 7 7 6 7 8 13 11 10 5 9 10 9 11 14 24 31 29 29 29
41 39 38 38 38 36 37 37 36 32 33 33 28 26 27 22 25 39 34 30 25 20 17 13 11 8 8 9 12 15 9 7 9 14 6 9 10 16 16 28 29 28 27
48 46 41 38 36 35 37 35 33 31 28 25 27 26 26 26 31 32 33 37 31 25 21 17 15 12 13 13 15 12 10 10 9 9 6 8 12 15 16 16 22 27 27
49 48 45 41 38 37 35 32 30 30 27 29 25 23 22 29 28 40 39 32 38 30 25 21 19 14 15 15 14 11 13 16 15 12 9 9 10 9 9 11 17 24 27
48 44 42 42 40 37 36 33 28 27 25 27 24 23 21 21 21 28 39 40 39 29 25 21 18 19 18 18 16 11 11 11 15 14 14 11 8 4 6 9 12 15 21
50 45 44 41 40 37 38 33 29 28 25 22 24 21 23 19 14 14 19 28 30 27 23 22 20 19 18 18 17 15 12 13 16 13 9 8 6 4 4 8 12 16 18
49 46 46 45 38 37 38 36 30 27 24 25 25 21 26 24 16 18 20 22 19 14 19 18 17 17 17 20 19 15 17 14 14 16 11 9 7 4 4 8 8 10 13
54 36 47 47 41 37 37 38 33 28 27 28 23 23 21 27 21 21 21 20 16 15 16 18 18 16 14 18 17 14 18 21 18 20 16 11 9 7 4 10 11 12 14
57 56 40 46 46 40 39 37 36 32 29 28 22 22 20 23 26 23 24 19 16 19 18 18 21 21 20 19 16 17 18 18 13 17 16 13 11 4 5 9 12 13 15
62 52 50 47 47 41 42 35 33 33 33 26 24 27 22 21 24 25 22 17 17 17 18 18 20 23 25 18 16 13 21 20 17 14 14 14 13 11 7 3 8 12 18
66 58 47 48 44 44 40 36 38 42 40 33 31 29 27 23 23 26 21 17 20 17 17 19 19 18 20 19 17 15 14 19 20 18 16 14 12 14 14 13 12 10 13
67 53 55 53 49 40 44 46 45 46 39 33 36 33 34 30 25 26 27 24 20 18 17 19 23 24 17 15 12 13 16 22 23 22 19 16 14 13 15 17 16 12 13
64 36 64 57 56 53 39 41 43 41 37 33 36 34 36 37 31 31 25 28 27 28 20 20 21 17 18 16 14 14 12 19 23 24 21 20 20 20 19 19 21 18 12
53 62 40 57 59 54 41 40 40 42 43 40 41 42 39 39 36 34 28 28 31 32 28 24 26 27 23 22 21 14 11 12 16 19 20 19 19 17 15 16 15 17 16
64 57 33 44 57 52 45 44 45 41 40 36 39 40 38 41 37 38 36 30 28 36 37 34 33 32 28 28 26 28 20 10 11 9 18 20 19 18 18 21 21 17 16
55 50 57 47 47 46 43 45 46 44 35 33 35 40 42 45 43 38 42 38 32 30 31 34 33 32 32 30 27 31 30 26 22 18 16 20 25 26 21 18 21 22 20
50 48 49 48 46 42 46 48 49 45 38 35 32 32 39 44 48 48 46 47 40 42 44 36 35 31 29 29 29 28 28 31 31 25 26 23 18 19 20 21 21 22 20
Wind_Direction_500mb
153 147 146 145 143 140 147 147 144 145 146 144 144 151 156 152 146 142 135 130 127 122 117 113 108 104 103 96 94 100 105 113 121 125 124 117 112 112 120 126 117 112 111
149 151 151 148 144 141 143 153 156 149 149 149 146 147 156 157 154 149 141 133 129 124 121 118 113 105 101 100 95 93 102 112 121 127 130 129 126 128 123 121 116 115 119
155 151 155 153 151 148 146 150 154 156 155 157 154 150 152 157 151 150 150 143 134 129 125 122 118 111 105 96 94 100 100 112 118 118 115 110 100 108 96 105 118 128 132
156 156 156 157 157 157 156 155 157 160 159 159 154 157 159 160 157 155 157 155 146 139 132 133 120 116 112 109 117 120 125 129 137 127 119 100 69 62 96 97 117 140 139
157 161 158 163 164 160 161 163 163 164 165 164 162 171 169 165 164 164 164 161 156 150 147 145 133 127 125 129 132 147 162 155 175 152 147 165 158 242 175 135 125 177 164
160 162 164 168 169 163 159 159 164 172 175 174 176 181 177 172 168 172 168 168 164 162 162 155 148 140 145 167 163 201 200 198 203 202 204 225 240 231 236 261 206 220 206
161 163 168 168 172 170 165 157 160 166 175 179 178 189 183 180 177 178 177 178 176 176 172 167 162 156 175 215 225 245 258 231 216 210 225 236 237 237 222 238 228 223 219
163 164 168 168 170 172 171 168 166 171 175 184 189 186 184 180 187 186 188 190 189 180 177 183 178 169 205 236 236 247 237 197 238 217 251 227 234 228 211 231 232 231 232
168 168 170 172 176 178 175 176 178 184 188 184 193 193 188 198 193 194 192 196 194 188 190 191 201 202 217 224 240 244 229 237 251 239 226 218 176 186 213 230 234 238 234
172 177 176 177 180 181 183 182 191 195 197 199 200 198 203 215 213 191 205 207 205 204 207 209 236 235 227 215 211 209 227 261 250 172 181 165 180 207 226 231 229 235 229
181 186 187 189 188 189 193 190 193 197 201 207 208 211 218 228 192 205 221 220 217 216 219 233 254 239 239 188 182 202 226 227 178 178 216 239 234 234 238 231 227 228 224
189 190 192 194 193 193 196 193 195 199 205 209 214 212 230 221 215 216 219 218 219 221 230 248 255 242 220 185 194 215 232 228 226 220 235 252 257 244 243 236 222 216 213
194 196 195 196 197 197 199 201 199 201 199 204 212 217 219 212 220 219 219 225 219 221 237 249 247 238 209 193 201 195 214 229 222 237 251 250 265 258 239 223 213 207 209
197 200 203 204 204 204 203 205 205 202 201 200 207 210 213 213 218 221 225 226 211 221 242 243 234 219 197 198 200 212 212 220 217 246 274 237 257 304 237 187 207 210 204
206 205 207 210 211 212 212 209 207 207 206 209 204 204 198 188 180 189 190 190 203 230 232 236 227 220 205 206 200 207 235 238 232 244 225 231 278 312 237 202 211 211 221
215 214 218 212 215 218 220 215 208 211 203 205 206 203 200 194 200 186 190 197 201 226 225 227 215 213 210 212 216 235 246 233 229 224 233 260 267 320 246 221 211 214 225
216 217 218 219 216 220 219 215 209 212 203 206 205 206 203 199 206 198 202 206 200 213 220 221 212 217 233 226 230 243 242 243 243 225 226 238 243 268 255 232 225 224 229
222 226 231 222 219 219 216 215 215 217 211 211 203 209 209 204 207 205 201 203 223 223 227 226 233 241 242 242 235 246 238 238 232 213 236 235 245 274 248 232 231 238 236
225 227 233 225 223 224 219 218 222 231 225 223 229 228 220 219 215 210 209 226 233 233 233 233 236 239 243 242 243 244 227 231 233 241 216 243 242 244 256 244 216 235 244
228 229 240 233 235 229 227 224 224 231 231 223 231 225 229 228 224 219 219 225 229 229 234 240 240 249 247 241 239 235 222 219 227 228 232 250 248 253 250 251 249 257 274
232 237 238 237 230 227 224 223 227 232 238 234 228 232 228 231 228 225 227 231 234 237 252 254 244 250 237 227 224 241 221 219 226 230 237 247 259 265 259 251 255 270 282
234 223 231 232 234 232 232 230 238 244 244 247 245 236 232 233 234 233 229 236 241 241 247 246 241 229 221 222 228 230 227 228 223 230 241 254 263 265 273 266 261 264 268
214 226 245 224 232 232 228 228 232 239 243 247 245 238 239 234 236 238 235 238 240 238 235 237 241 242 233 226 221 211 209 222 224 235 232 235 252 250 251 251 260 274 272
233 219 231 221 225 231 232 230 226 234 242 255 253 244 247 240 240 240 238 239 236 236 242 249 247 236 228 221 227 221 227 225 219 229 234 228 231 239 251 258 260 265 276
235 231 228 227 223 232 237 238 235 234 238 252 262 251 246 246 248 247 240 242 237 243 246 247 246 225 226 227 234 235 236 238 240 244 256 244 248 254 249 259 260 259 255
228 231 233 228 227 231 241 242 242 242 238 242 247 248 249 249 249 247 243 236 239 257 246 239 232 228 226 232 235 237 241 250 235 251 259 253 258 251 244 248 246 235 257
Wind_Speed_850mb
40 47 55 53 50 47 50 56 55 57 60 59 58 59 62 52 44 41 42 39 38 36 33 32 32 32 31 28 27 27 27 26 28 29 33 29 26 25 21 21 20 23 25
50 50 56 53 51 47 47 50 52 54 57 57 55 51 53 47 41 40 39 36 35 33 32 31 29 27 25 25 25 24 24 23 23 24 23 24 22 19 17 20 18 20 22
48 49 54 49 48 46 46 49 51 51 49 53 52 46 49 48 42 38 35 33 32 32 29 26 24 22 19 18 17 18 18 18 19 20 16 15 14 11 11 12 12 15 19
50 50 49 47 44 43 44 45 46 45 48 50 48 40 43 43 41 35 31 29 28 27 24 19 19 18 16 15 11 11 12 14 16 17 17 16 7 2 7 7 5 8 14
51 47 48 44 41 41 45 43 41 40 45 45 44 37 37 40 41 34 30 28 26 24 20 16 14 14 13 11 9 6 8 13 14 23 21 15 10 13 5 4 2 5 8
51 48 47 45 41 38 39 41 40 40 41 41 39 36 37 38 36 32 31 29 26 22 19 16 13 11 9 7 5 4 6 13 18 20 16 17 24 22 23 9 10 7 7
49 45 45 44 43 41 39 38 38 38 38 37 36 34 36 37 34 32 30 28 24 19 16 14 10 8 6 6 7 8 6 6 11 16 19 22 30 33 34 25 13 10 10
47 47 45 43 42 41 39 41 39 37 37 36 41 43 33 36 29 30 27 25 22 19 14 10 7 6 4 4 7 10 9 11 12 18 16 22 18 41 38 27 23 15 12
41 42 44 45 43 40 37 40 40 36 33 30 30 39 42 51 37 24 25 25 22 18 14 10 6 5 5 5 9 13 13 11 11 13 11 12 8 18 35 32 29 23 22
38 38 39 41 41 39 38 36 36 35 33 29 27 32 41 36 44 29 24 24 22 19 15 10 7 7 6 7 8 13 11 10 5 9 10 9 11 14 24 31 29 29 29
41 39 38 38 38 36 37 37 36 32 33 33 28 26 27 22 25 39 34 30 25 20 17 13 11 8 8 9 12 15 9 7 9 14 6 9 10 16 16 28 29 28 27
48 46 41 38 36 35 37 35 33 31 28 25 27 26 26 26 31 32 33 37 31 25 21 17 15 12 13 13 15 12 10 10 9 9 6 8 12 15 16 16 22 27 27
49 48 45 41 38 37 35 32 30 30 27 29 25 23 22 29 28 40 39 32 38 30 25 21 19 14 15 15 14 11 13 16 15 12 9 9 10 9 9 11 17 24 27
48 44 42 42 40 37 36 33 28 27 25 27 24 23 21 21 21 28 39 40 39 29 25 21 18 19 18 18 16 11 11 11 15 14 14 11 8 4 6 9 12 15 21
50 45 44 41 40 37 38 33 29 28 25 22 24 21 23 19 14 14 19 28 30 27 23 22 20 19 18 18 17 15 12 13 16 13 9 8 6 4 4 8 12 16 18
49 46 46 45 38 37 38 36 30 27 24 25 25 21 26 24 16 18 20 22 19 14 19 18 17 17 17 20 19 15 17 14 14 16 11 9 7 4 4 8 8 10 13
54 36 47 47 41 37 37 38 33 28 27 28 23 23 21 27 21 21 21 20 16 15 16 18 18 16 14 18 17 14 18 21 18 20 16 11 9 7 4 10 11 12 14
57 56 40 46 46 40 39 37 36 32 29 28 22 22 20 23 26 23 24 19 16 19 18 18 21 21 20 19 16 17 18 18 13 17 16 13 11 4 5 9 12 13 15
62 52 50 47 47 41 42 35 33 33 33 26 24 27 22 21 24 25 22 17 17 17 18 18 20 23 25 18 16 13 21 20 17 14 14 14 13 11 7 3 8 12 18
66 58 47 48 44 44 40 36 38 42 40 33 31 29 27 23 23 26 21 17 20 17 17 19 19 18 20 19 17 15 14 19 20 18 16 14 12 14 14 13 12 10 13
67 53 55 53 49 40 44 46 45 46 39 33 36 33 34 30 25 26 27 24 20 18 17 19 23 24 17 15 12 13 16 22 23 22 19 16 14 13 15 17 16 12 13
64 36 64 57 56 53 39 41 43 41 37 33 36 34 36 37 31 31 25 28 27 28 20 20 21 17 18 16 14 14 12 19 23 24 21 20 20 20 19 19 21 18 12
53 62 40 57 59 54 41 40 40 42 43 40 41 42 39 39 36 34 28 28 31 32 28 24 26 27 23 22 21 14 11 12 16 19 20 19 19 17 15 16 15 17 16
64 57 33 44 57 52 45 44 45 41 40 36 39 40 38 41 37 38 36 30 28 36 37 34 33 32 28 28 26 28 20 10 11 9 18 20 19 18 18 21 21 17 16
55 50 57 47 47 46 43 45 46 44 35 33 35 40 42 45 43 38 42 38 32 30 31 34 33 32 32 30 27 31 30 26 22 18 16 20 25 26 21 18 21 22 20
50 48 49 48 46 42 46 48 49 45 38 35 32 32 39 44 48 48 46 47 40 42 44 36 35 31 29 29 29 28 28 31 31 25 26 23 18 19 20 21 21 22 20
Wind_Direction_850mb
153 147 146 145 143 140 147 147 144 145 146 144 144 151 156 152 146 142 135 130 127 122 117 113 108 104 103 96 94 100 105 113 121 125 124 117 112 112 120 126 117 112 111
149 151 151 148 144 141 143 153 156 149 149 149 146 147 156 157 154 149 141 133 129 124 121 118 113 105 101 100 95 93 102 112 121 127 130 129 126 128 123 121 116 115 119
155 151 155 153 151 148 146 150 154 156 155 157 154 150 152 157 151 150 150 143 134 129 125 122 118 111 105 96 94 100 100 112 118 118 115 110 100 108 96 105 118 128 132
156 156 156 157 157 157 156 155 157 160 159 159 154 157 159 160 157 155 157 155 146 139 132 133 120 116 112 109 117 120 125 129 137 127 119 100 69 62 96 97 117 140 139
157 161 158 163 164 160 161 163 163 164 165 164 162 171 169 165 164 164 164 161 156 150 147 145 133 127 125 129 132 147 162 155 175 152 147 165 158 242 175 135 125 177 164
160 162 164 168 169 163 159 159 164 172 175 174 176 181 177 172 168 172 168 168 164 162 162 155 148 140 145 167 163 201 200 198 203 202 204 225 240 231 236 261 206 220 206
161 163 168 168 172 170 165 157 160 166 175 179 178 189 183 180 177 178 177 178 176 176 172 167 162 156 175 215 225 245 258 231 216 210 225 236 237 237 222 238 228 223 219
163 164 168 168 170 172 171 168 166 171 175 184 189 186 184 180 187 186 188 190 189 180 177 183 178 169 205 236 236 247 237 197 238 217 251 227 234 228 211 231 232 231 232
168 168 170 172 176 178 175 176 178 184 188 184 193 193 188 198 193 194 192 196 194 188 190 191 201 202 217 224 240 244 229 237 251 239 226 218 176 186 213 230 234 238 234
172 177 176 177 180 181 183 182 191 195 197 199 200 198 203 215 213 191 205 207 205 204 207 209 236 235 227 215 211 209 227 261 250 172 181 165 180 207 226 231 229 235 229
181 186 187 189 188 189 193 190 193 197 201 207 208 211 218 228 192 205 221 220 217 216 219 233 254 239 239 188 182 202 226 227 178 178 216 239 234 234 238 231 227 228 224
189 190 192 194 193 193 196 193 195 199 205 209 214 212 230 221 215 216 219 218 219 221 230 248 255 242 220 185 194 215 232 228 226 220 235 252 257 244 243 236 222 216 213
194 196 195 196 197 197 199 201 199 201 199 204 212 217 219 212 220 219 219 225 219 221 237 249 247 238 209 193 201 195 214 229 222 237 251 250 265 258 239 223 213 207 209
197 200 203 204 204 204 203 205 205 202 201 200 207 210 213 213 218 221 225 226 211 221 242 243 234 219 197 198 200 212 212 220 217 246 274 237 257 304 237 187 207 210 204
206 205 207 210 211 212 212 209 207 207 206 209 204 204 198 188 180 189 190 190 203 230 232 236 227 220 205 206 200 207 235 238 232 244 225 231 278 312 237 202 211 211 221
215 214 218 212 215 218 220 215 208 211 203 205 206 203 200 194 200 186 190 197 201 226 225 227 215 213 210 212 216 235 246 233 229 224 233 260 267 320 246 221 211 214 225
216 217 218 219 216 220 219 215 209 212 203 206 205 206 203 199 206 198 202 206 200 213 220 221 212 217 233 226 230 243 242 243 243 225 226 238 243 268 255 232 225 224 229
222 226 231 222 219 219 216 215 215 217 211 211 203 209 209 204 207 205 201 203 223 223 227 226 233 241 242 242 235 246 238 238 232 213 236 235 245 274 248 232 231 238 236
225 227 233 225 223 224 219 218 222 231 225 223 229 228 220 219 215 210 209 226 233 233 233 233 236 239 243 242 243 244 227 231 233 241 216 243 242 244 256 244 216 235 244
228 229 240 233 235 229 227 224 224 231 231 223 231 225 229 228 224 219 219 225 229 229 234 240 240 249 247 241 239 235 222 219 227 228 232 250 248 253 250 251 249 257 274
232 237 238 237 230 227 224 223 227 232 238 234 228 232 228 231 228 225 227 231 234 237 252 254 244 250 237 227 224 241 221 219 226 230 237 247 259 265 259 251 255 270 282
234 223 231 232 234 232 232 230 238 244 244 247 245 236 232 233 234 233 229 236 241 241 247 246 241 229 221 222 228 230 227 228 223 230 241 254 263 265 273 266 261 264 268
214 226 245 224 232 232 228 228 232 239 243 247 245 238 239 234 236 238 235 238 240 238 235 237 241 242 233 226 221 211 209 222 224 235 232 235 252 250 251 251 260 274 272
233 219 231 221 225 231 232 230 226 234 242 255 253 244 247 240 240 240 238 239 236 236 242 249 247 236 228 221 227 221 227 225 219 229 234 228 231 239 251 258 260 265 276
235 231 228 227 223 232 237 238 235 234 238 252 262 251 246 246 248 247 240 242 237 243 246 247 246 225 226 227 234 235 236 238 240 244 256 244 248 254 249 259 260 259 255
228 231 233 228 227 231 241 242 242 242 238 242 247 248 249 249 249 247 243 236 239 257 246 239 232 228 226 232 235 237 241 250 235 251 259 253 258 251 244 248 246 235 257